Regional Weather Roundup
Issued by NWS

Home | Current Version | Previous Version | Graphics & Text | Print | Product List | Glossary Off
Versions: 1 2 3 4 5 6 7 8 9 10 11 12 13 14 15 16 17 18 19 20 21 22 23 24 25 26 27 28 29 30 31 32 33 34 35 36 37 38 39 40 41 42 43 44 45 46 47 48 49 50

000
ASUS43 KDMX 172106
RWRIA

WEATHER ROUNDUP FOR IOWA
NATIONAL WEATHER SERVICE DES MOINES IA
300 PM CST FRI NOV 17 2017

NOTE: "FAIR" INDICATES FEW OR NO CLOUDS BELOW 12,000 FEET WITH NO
SIGNIFICANT WEATHER AND/OR OBSTRUCTIONS TO VISIBILITY.

* - THESE STATIONS ARE NOT NWS STATIONS...THUS NOT UNDER NWS
QUALITY CONTROL.  THEY ALSO DO NOT REPORT WEATHER SUCH
AS PRECIPITATION OR FOG.

IAZ001>003-012>014-020>022-031>034-043>046-172200-
   NORTHWEST IOWA

CITY           SKY/WX    TMP DP  RH WIND       PRES   REMARKS
CARROLL *      CLOUDY    52  50  93 S3        29.53F FOG
CHEROKEE *     CLOUDY    56  47  72 N10       29.53F
DENISON *      CLOUDY    52  52 100 CALM      29.53F FOG
LE MARS *      MOSUNNY   55  43  62 N9        29.53S
ORANGE CITY *  SUNNY     55  45  67 N6        29.53S
SHELDON *      MOSUNNY   55  43  62 NE6       29.52F
SIOUX CITY     SUNNY     53  39  59 NW15      29.53S
SPENCER        CLOUDY    51  44  77 E6        29.54F
STORM LAKE *   CLOUDY    54  48  82 CALM      29.53F
$$

IAZ055>058-069>071-079>083-090>094-172200-
   SOUTHWEST IOWA

CITY           SKY/WX    TMP DP  RH WIND       PRES   REMARKS
ATLANTIC *     CLOUDY    54  54 100 S7        29.52S FOG
AUDUBON *      CLOUDY    54  52  94 SW7       29.53F FOG
CLARINDA *     CLOUDY    57  57 100 S5          N/A  FOG
COUNCIL BLFS * CLOUDY    57  57 100 NE3       29.50F FOG
CRESTON *      CLOUDY    52  52 100 S9        29.53S FOG
HARLAN  *      CLOUDY    54  54 100 SW6       29.55S
LAMONI         CLOUDY    53  53 100 S12G17    29.52F FOG
RED OAK *      CLOUDY    57  57 100 S6        29.51S FOG
SHENANDOAH *   CLOUDY    59  57  94 CALM      29.50S FOG
$$

IAZ047>049-059>061-072>074-084-172200-
   CENTRAL IOWA

CITY           SKY/WX    TMP DP  RH WIND       PRES   REMARKS
AMES           CLOUDY    48  47  96 SE6       29.56S FOG
ANKENY *       CLOUDY    50  46  87 SE7       29.56S
BOONE *        CLOUDY    50  46  87 S6        29.54S FOG
CHARITON *     CLOUDY    52  52 100 S12       29.53F FOG
DES MOINES     CLOUDY    51  49  92 S7        29.55S
GRINNELL*      CLOUDY    45  42  90 SE9       29.58F FOG
KNOXVILLE *    CLOUDY    50  46  87 SE10      29.54S
MARSHALLTOWN   CLOUDY    44  43  96 SE12      29.57S FOG
NEWTON *       CLOUDY    46  45  93 SE12      29.57S FOG
PELLA *        CLOUDY    48  43  83 SE8       29.57F
PERRY *        CLOUDY    51  49  93 S7        29.54S
$$

IAZ004>006-015-016-023>025-035-036-172200-
   NORTH CENTRAL IOWA

CITY           SKY/WX    TMP DP  RH WIND       PRES   REMARKS
ALGONA *       CLOUDY    45  45 100 E5        29.56F FOG
CLARION *      CLOUDY    45  45 100 S5        29.56F FOG
ESTHERVILLE    CLOUDY    44  42  93 SE7       29.55F
FORT DODGE *   LGT RAIN  47  46  97 S3        29.55F FOG
MASON CITY     FOG       40  39  97 SE6       29.59F VSB 1
FOREST CITY *  DRZL/FOG  43  43 100 SE5       29.58S VSB 3/4
WEBSTER CITY * CLOUDY    46  45  93 E6        29.54S FOG
IOWA FALLS *   DRIZZLE   44  42  95 SE6       29.58F
$$

IAZ007>011-017>019-026>030-037>042-050>054-066-172200-
   NORTHEAST IOWA

CITY           SKY/WX    TMP DP  RH WIND       PRES   REMARKS
CEDAR RAPIDS   CLOUDY    41  40  96 SE13      29.60F FOG
CHARLES CITY * LGT RAIN  39  39 100 S7        29.60S VSB 3/4 WCI  34
CLINTON *      LGT RAIN  41  38  89 S15G21    29.67F FOG
DECORAH *      MIX PCPN  37  37 100 S6        29.61R VSB 1/4 WCI  33
DUBUQUE        CLOUDY    37  37 100 S15       29.64F FOG     WCI  28
MONTICELLO *   CLOUDY    39  39 100 SE10      29.63F FOG     WCI  32
OELWEIN *      MIX PCPN  39  39 100 S12G17    29.61S VSB 1/2 WCI  32
WATERLOO       CLOUDY    40  39  97 SE9       29.59F FOG     WCI  34
$$

IAZ064-065-067-068-078-172200-
   EAST CENTRAL IOWA

CITY           SKY/WX    TMP DP  RH WIND       PRES   REMARKS
DAVENPORT      CLOUDY    41  39  93 S12       29.68F FOG
IOWA CITY      CLOUDY    44  41  89 SE8       29.63F FOG
MT. PLEASANT * CLOUDY    46  40  82 SE14      29.63F FOG
MUSCATINE *    CLOUDY    45  41  87 S13G20    29.65F FOG
QUAD CITIES    CLOUDY    44  39  82 SE8       29.67F HAZE
$$

IAZ062-063-075>077-085>089-095>099-172200-
   SOUTHEAST IOWA

CITY           SKY/WX    TMP DP  RH WIND       PRES   REMARKS
BURLINGTON     CLOUDY    46  42  86 S9        29.64F
FAIRFIELD *    CLOUDY    46  41  81 SE13      29.59F
FORT MADISON * CLOUDY    46  43  87 SE9G17    29.64F HAZE
KEOKUK *       CLOUDY    50  43  76 SE8       29.63F
OSKALOOSA *    CLOUDY    47  43  86 S15       29.57F
OTTUMWA        CLOUDY    47  43  86 SE13      29.57F FOG
WASHINGTON *   CLOUDY    46  43  87 S15       29.61F
$$

ABBREVIATIONS USED IN REMARKS
   TC - TEMPERATURES IN CELSIUS
  WCI - WIND CHILL INDEX
   HX - HEAT INDEX
  VSB - VISIBILITY
$$




USA.gov is the U.S. government's official web portal to all federal, state and local government web resources and services.